[[{"header":{"parameterUnit":"m.s-1","parameterCategory":1,"la1":30.2991,"la2":30.254,"lo1":-89.0895,"lo2":-89.0444,"dy":0.0017,"dx":0.0017,"nx":28,"ny":28,"refTime":"2025-07-10T21:00:00:Z","depth":0,"parameterNumber":2,"parameterNumberName":"U-component_of_WINDS"},"data":[0,0,0,0,0,0,0,0,0,0,0,0,0,0,0,0,0,0,0,0,0,0,0,0,0,0,0,0,0,0,0,0,0,0,0,0,0,0,0,0,0,0,0,0,0,0,0,0,0,0,0,0,0,0,0,0,0,0,1.7179,1.7181,0,1.7363,1.7365,1.7367,1.7446,1.7446,1.7446,1.7445,1.7637,1.7642,1.7647,0,0,0,0,0,0,0,0,0,0,0,0,0,1.6898,1.6902,1.7179,1.7181,1.7184,1.7363,1.7365,1.7368,1.7446,1.7446,1.7445,1.7445,1.7635,1.7641,1.7648,0,0,0,0,0,0,0,0,0,0,0,0,0,1.7045,1.6904,1.7178,1.7244,1.7252,1.7362,1.7366,1.7369,1.7446,1.7446,1.7445,1.7445,1.7633,1.7641,1.7649,1.7709,0,0,1.7674,1.7677,0,0,0,0,0,0,0,0,1.7036,1.7055,1.7232,1.724,1.7249,1.7381,1.7337,1.7483,1.7446,1.7373,1.7445,1.7445,1.7552,1.7567,1.7603,1.7718,1.7726,1.7674,1.7679,1.7683,1.7685,0,0,0,0,0,0,0,1.7026,1.7047,1.7252,1.7235,1.7245,1.7265,1.7286,1.7365,1.7463,1.7379,1.7385,1.7406,1.7557,1.7595,1.7608,1.7729,1.7674,1.7681,1.7686,1.7689,1.7903,1.7904,0,0,0,0,0,0,1.7005,1.7038,1.7246,1.7257,1.7139,1.7271,1.7294,1.7339,1.7462,1.7481,1.7406,1.7409,1.7581,1.7598,1.7615,1.7694,1.7683,1.769,1.7695,1.7902,1.7903,1.7904,0,0,0,0,0,0,1.6998,1.7022,1.7239,1.715,1.7179,1.7276,1.7327,1.7343,1.7381,1.7483,1.7501,1.7426,1.7581,1.7603,1.7685,1.7701,1.7694,1.7701,1.7901,1.7902,1.7904,1.7851,0,0,0,0,0,0,1.699,1.702,1.7043,1.715,1.7183,1.7304,1.7328,1.7347,1.7395,1.74,1.7507,1.7524,1.7583,1.7672,1.7693,1.7712,1.7708,1.79,1.7902,1.7903,1.7852,1.785,1.7849,0,0,0,0,0,1.698,1.7021,1.7043,1.7068,1.7214,1.7305,1.7324,1.739,1.7395,1.742,1.7485,1.7521,1.7696,1.768,1.7704,1.7726,1.7899,1.7901,1.7903,1.7852,1.785,1.7849,0,0,0,0,0,0,1.6914,1.7036,1.7062,1.7139,1.7211,1.7318,1.7351,1.7386,1.7459,1.7461,1.754,1.7564,1.7638,1.7691,1.767,1.7791,1.7801,1.7807,1.7754,1.7753,1.7752,1.7738,1.7714,0,0,0,0,0,1.6908,1.6971,1.7075,1.7133,1.7168,1.7253,1.7295,1.7339,1.7417,1.7448,1.752,1.7595,1.7667,1.7713,1.7785,1.786,1.7884,1.7887,1.7885,1.7884,1.7889,1.7933,1.7935,1.791,1.791,1.791,0,0,1.6898,1.6972,1.7007,1.7122,1.7183,1.7247,1.7278,1.7345,1.7393,1.7459,1.754,1.7595,1.7684,1.7762,1.78,1.7808,1.7901,1.7886,1.7884,1.789,1.7935,1.7937,1.7939,1.7911,1.7911,1.7911,0,0,1.6911,1.6973,1.7029,1.7089,1.718,1.7237,1.725,1.7352,1.7391,1.7473,1.7524,1.7584,1.7706,1.7768,1.7815,1.7852,1.7888,1.7873,1.7866,1.7908,1.791,1.7912,1.7926,1.793,1.7878,1.7878,1.7878,0,1.6886,1.6984,1.7053,1.7117,1.7166,1.7228,1.7285,1.734,1.7451,1.7484,1.7491,1.7646,1.7711,1.7804,1.7813,1.7849,1.7868,1.7862,1.7904,1.7907,1.791,1.7924,1.7929,1.7876,1.7876,1.7876,1.7876,0,1.695,1.7017,1.7051,1.7155,1.7209,1.7269,1.7347,1.7393,1.7433,1.7489,1.7572,1.7652,1.7741,1.7767,1.7807,1.7866,1.7868,1.7889,1.79,1.7909,1.7923,1.7929,1.7872,1.7873,1.7874,1.7874,0,0,1.6927,1.7068,1.708,1.7128,1.7234,1.7288,1.7351,1.7438,1.7476,1.755,1.7606,1.7708,1.7728,1.7781,1.7829,1.7865,1.789,1.7882,1.7885,1.7881,1.7961,1.7945,1.795,1.7914,1.7915,1.7916,1.7954,0,1.6955,1.707,1.7134,1.7223,1.7286,1.7346,1.7402,1.7473,1.7527,1.7589,1.765,1.7721,1.7741,1.7774,1.7813,1.7879,1.7907,1.7877,1.7968,1.797,1.7943,1.7958,1.7941,1.7973,1.796,1.7961,1.7962,0,1.7002,1.7075,1.717,1.7269,1.7298,1.7346,1.7431,1.749,1.7573,1.761,1.7669,1.7716,1.7787,1.7792,1.7891,1.7869,1.791,1.7948,1.7951,1.7962,1.7966,1.797,1.7985,1.7989,1.7971,1.7971,1.797,0,1.6976,1.7098,1.7171,1.721,1.7327,1.736,1.7411,1.7493,1.7541,1.7615,1.7647,1.7729,1.7774,1.7837,1.7905,1.7903,1.7997,1.8009,1.803,1.8029,1.8048,1.8045,1.8069,1.8073,1.8073,1.8073,1.8073,0,1.7001,1.7057,1.7161,1.7205,1.727,1.7344,1.7406,1.7461,1.7534,1.7591,1.7648,1.7701,1.7788,1.7851,1.7906,1.7979,1.7999,1.8031,1.8045,1.8027,1.8022,1.8055,1.8054,1.8075,1.8074,1.8074,1.8074,0,1.6983,1.7055,1.7138,1.7242,1.7269,1.7312,1.7402,1.7448,1.7505,1.7577,1.7598,1.7688,1.7766,1.784,1.7945,1.7982,1.8055,1.8073,1.8027,1.8035,1.8052,1.805,1.8098,1.8108,1.8104,1.8104,1.8104,0,1.6994,1.7038,1.7147,1.7189,1.7238,1.7305,1.7354,1.7428,1.7477,1.7575,1.7609,1.7691,1.7761,1.7883,1.7959,1.8039,1.806,1.8071,1.8072,1.8052,1.806,1.8057,1.8062,1.8069,1.8069,1.8069,1.8068,0,1.7006,1.7039,1.7107,1.7188,1.7245,1.7313,1.7383,1.7414,1.7502,1.7554,1.7634,1.7688,1.7794,1.7876,1.7965,1.8018,1.8058,1.8067,1.8077,1.8058,1.803,1.8046,1.8023,1.8066,1.8066,1.8066,1.8067,1.8067,1.7003,1.7046,1.7129,1.7203,1.7263,1.7327,1.7375,1.7438,1.7506,1.7598,1.7638,1.7719,1.7801,1.7925,1.7978,1.8043,1.8052,1.8065,1.8069,1.8071,1.8067,1.8019,1.8059,1.8059,1.806,1.806,1.806,0,1.7019,1.7075,1.7142,1.7238,1.7296,1.7328,1.7407,1.7454,1.7524,1.7597,1.7664,1.7757,1.7836,1.7917,1.8001,1.8037,1.8058,1.8057,1.8055,1.8067,1.8054,1.8038,1.8039,1.8039,1.8039,1.8039,1.8039,1.8039,1.7033,1.7107,1.715,1.7254,1.7311,1.739,1.7432,1.7491,1.755,1.765,1.7716,1.7768,1.7845,1.7934,1.8008,1.8031,1.8059,1.8053,1.808,1.8066,1.8068,1.8069,1.8054,1.8058,1.8058,1.8087,1.8088,1.8088]},{"header":{"parameterUnit":"m.s-1","parameterCategory":1,"la1":30.2991,"la2":30.254,"lo1":-89.0895,"lo2":-89.0444,"dy":0.0017,"dx":0.0017,"nx":28,"ny":28,"refTime":"2025-07-10T21:00:00:Z","depth":0,"parameterNumber":3,"parameterNumberName":"V-component_of_WINDS"},"data":[0,0,0,0,0,0,0,0,0,0,0,0,0,0,0,0,0,0,0,0,0,0,0,0,0,0,0,0,0,0,0,0,0,0,0,0,0,0,0,0,0,0,0,0,0,0,0,0,0,0,0,0,0,0,0,0,0,0,3.4375,3.4375,0,3.4427,3.4428,3.4428,3.4416,3.4415,3.4414,3.4413,3.4465,3.4468,3.447,0,0,0,0,0,0,0,0,0,0,0,0,0,3.4262,3.4264,3.4375,3.4375,3.4376,3.4427,3.4428,3.4428,3.4416,3.4415,3.4414,3.4413,3.4465,3.4467,3.447,0,0,0,0,0,0,0,0,0,0,0,0,0,3.4312,3.4265,3.4375,3.4376,3.4377,3.4427,3.4428,3.4429,3.4417,3.4415,3.4414,3.4412,3.4464,3.4467,3.447,3.4522,0,0,3.4481,3.4483,0,0,0,0,0,0,0,0,3.4309,3.4316,3.4375,3.4376,3.4377,3.4414,3.4407,3.446,3.4417,3.4401,3.4413,3.4411,3.4449,3.4454,3.4467,3.4524,3.4526,3.4481,3.4483,3.4485,3.4486,0,0,0,0,0,0,0,3.4306,3.4314,3.4395,3.4376,3.4377,3.4373,3.4379,3.4417,3.4433,3.4403,3.4402,3.4408,3.4449,3.4464,3.4468,3.4527,3.4481,3.4484,3.4486,3.4488,3.4628,3.4629,0,0,0,0,0,0,3.4302,3.4311,3.4394,3.4397,3.4339,3.4377,3.4383,3.4403,3.4433,3.4436,3.441,3.4408,3.4458,3.4464,3.447,3.4531,3.4485,3.4488,3.449,3.4626,3.4628,3.463,0,0,0,0,0,0,3.43,3.4309,3.4392,3.4354,3.4364,3.438,3.4403,3.4405,3.4419,3.4438,3.444,3.4421,3.4457,3.4465,3.4509,3.4532,3.449,3.4493,3.4624,3.4627,3.4629,3.4654,0,0,0,0,0,0,3.4296,3.4309,3.4329,3.4354,3.4366,3.443,3.4405,3.4407,3.4425,3.4423,3.4449,3.4452,3.4457,3.4504,3.4512,3.4537,3.4496,3.4622,3.4625,3.4628,3.4651,3.4657,3.4662,0,0,0,0,0,3.4292,3.4334,3.433,3.434,3.4392,3.4432,3.4438,3.4443,3.4427,3.4447,3.4459,3.4451,3.4529,3.4508,3.4518,3.4543,3.4621,3.4625,3.4628,3.4649,3.4656,3.4662,0,0,0,0,0,0,3.431,3.4337,3.4333,3.4384,3.4406,3.443,3.4455,3.4451,3.4477,3.4474,3.4478,3.4484,3.4529,3.4541,3.4517,3.4594,3.4572,3.4578,3.4585,3.4592,3.4597,3.4593,3.4499,0,0,0,0,0,3.432,3.4351,3.4373,3.4415,3.4427,3.4439,3.4457,3.4458,3.4481,3.449,3.4505,3.4526,3.4555,3.4574,3.4602,3.4653,3.4658,3.4675,3.4681,3.4685,3.469,3.4716,3.4724,3.4642,3.4642,3.4642,0,0,3.4341,3.4359,3.4379,3.442,3.4436,3.4467,3.4447,3.4481,3.4503,3.4495,3.4537,3.4549,3.4573,3.462,3.4642,3.4631,3.4713,3.469,3.4693,3.4695,3.4721,3.4729,3.4736,3.4645,3.4644,3.4644,0,0,3.4394,3.4412,3.4449,3.4466,3.4492,3.45,3.4509,3.4534,3.4541,3.4584,3.4577,3.4604,3.4654,3.4671,3.4687,3.4746,3.4739,3.4755,3.4783,3.4809,3.4815,3.4821,3.4841,3.4849,3.4759,3.476,3.476,0,3.4417,3.4464,3.4469,3.4503,3.4521,3.4514,3.4551,3.4568,3.4601,3.4613,3.4601,3.4663,3.4679,3.473,3.4744,3.4757,3.4767,3.4752,3.4814,3.482,3.4825,3.4845,3.4852,3.4761,3.4761,3.4761,3.4761,0,3.4489,3.4522,3.4549,3.4582,3.4602,3.4638,3.4647,3.4667,3.4667,3.4676,3.4719,3.4738,3.4769,3.4781,3.4781,3.4831,3.4824,3.4813,3.4791,3.4835,3.4853,3.486,3.4764,3.4763,3.4762,3.4762,0,0,3.4556,3.459,3.46,3.4614,3.4642,3.4667,3.4702,3.4732,3.4749,3.4772,3.4801,3.4843,3.4833,3.485,3.4852,3.4875,3.4919,3.4861,3.4862,3.4871,3.4975,3.4982,3.4991,3.4915,3.4917,3.4918,3.4972,0,3.4611,3.4673,3.4678,3.4733,3.4763,3.4757,3.4787,3.4807,3.4816,3.4841,3.4851,3.4881,3.4866,3.4876,3.4898,3.4909,3.494,3.4905,3.4941,3.4942,3.4935,3.5001,3.5009,3.5059,3.498,3.4981,3.4982,0,3.4684,3.4709,3.4767,3.479,3.4803,3.483,3.4858,3.4883,3.4905,3.491,3.4929,3.4927,3.4962,3.4939,3.4986,3.4963,3.4977,3.4985,3.4987,3.499,3.4964,3.5005,3.5076,3.5083,3.4993,3.4992,3.4991,0,3.4725,3.4774,3.4815,3.4827,3.4855,3.4874,3.4887,3.4907,3.4925,3.4949,3.4961,3.4988,3.5003,3.5025,3.503,3.5013,3.5077,3.5055,3.5081,3.5081,3.5095,3.5094,3.5169,3.5105,3.5105,3.5105,3.5105,0,3.4786,3.4821,3.4834,3.4859,3.4898,3.4903,3.4942,3.4953,3.4971,3.4998,3.4994,3.5019,3.5025,3.5051,3.5056,3.5093,3.51,3.5105,3.5105,3.5105,3.5104,3.5114,3.5111,3.5107,3.5107,3.5106,3.5106,0,3.4838,3.4848,3.4892,3.4915,3.4922,3.495,3.4969,3.4992,3.5001,3.5034,3.5042,3.5055,3.5085,3.5093,3.5129,3.5132,3.5176,3.5174,3.5169,3.5169,3.5194,3.5192,3.5278,3.5289,3.5219,3.522,3.522,0,3.4876,3.4904,3.4929,3.4947,3.496,3.4989,3.5007,3.5013,3.5031,3.5058,3.5078,3.5108,3.5132,3.518,3.5192,3.5219,3.5217,3.5245,3.5221,3.5219,3.5217,3.5215,3.5217,3.525,3.5251,3.5251,3.5252,0,3.4942,3.4945,3.4972,3.5,3.5022,3.5044,3.5065,3.508,3.5088,3.5109,3.514,3.5159,3.5195,3.5225,3.5252,3.5264,3.5259,3.5259,3.5267,3.5266,3.5262,3.5264,3.5181,3.5257,3.5257,3.5256,3.5256,3.5256,3.4988,3.5012,3.5033,3.5063,3.5079,3.5099,3.5122,3.5133,3.516,3.519,3.5192,3.5225,3.5245,3.5281,3.5294,3.532,3.5311,3.5322,3.5325,3.5327,3.5329,3.5258,3.5325,3.5325,3.5325,3.5325,3.5324,0,3.5053,3.5066,3.5094,3.5123,3.5146,3.514,3.5163,3.5183,3.5212,3.5232,3.5255,3.529,3.5318,3.5333,3.536,3.5378,3.5376,3.5385,3.5383,3.5386,3.5336,3.5326,3.5385,3.5385,3.5385,3.5385,3.5385,3.5385,3.5089,3.5129,3.5135,3.5182,3.5195,3.5228,3.5241,3.5259,3.5275,3.5314,3.5338,3.5347,3.5364,3.5393,3.5418,3.5421,3.5431,3.5441,3.5443,3.5396,3.5389,3.5384,3.5375,3.5443,3.5443,3.5491,3.5491,3.5492]}]]